Content
SEND FEEDBACK

Daily
Averages
Monthly
Summary
Malaysia

KUCHING, MALAYSIA


Home > Asia > Malaysia
Elevation: 89 feet     Latitude: 01 29N     Longitude: 110 20E

WEATHER
 
SELECT A DAY
Number of Records: 270,456;   Date Range: 8/9/96 - 8/10/14
 
SHARE

PRINT THIS DATA

[ ← Previous Day ]
WEATHER ALMANAC - JANUARY 10, 2013
[ Next Day → ]
[ °C ]   °F
Weather ElementAverageHighLow
Temperature77.9 °F85 °F (2:00 pm)73.4 °F (4:00 am)
Dewpoint73.6 °F75.2 °F (11:00 am)68 °F (4:00 pm)
Humidity86.5 %100 % (4:00 am)64 % (2:00 pm)
Barometer29.77 in29.83 in (9:00 am)29.71 in (3:00 pm)
Wind Speed6.4 mph18.4 mph (3:30 pm)
Wind Gust29.9 mph (3:30 pm)
Weather ElementAverage
Visibility5.8 mi
Wind DirectionWNW (278 °)

Weather ElementTotal
Precipitation---
Cooling Degree Days14.2 (Base 65)
Growing Degree Days29.2 (Base 50)
Averaged from 55 records on January 10, 2013
WEATHER CONDITIONS BREAKOUT
WIND DIRECTION BREAKOUT
WEATHER BY HOUR - JANUARY 10, 2013
[ °C ]   °F
Local TimeTemperatureDewpointHumidityBarometerVisibilityWind DirectionWind SpeedGust SpeedPrecipitationEventsConditions
12:30 AM75.2 °F73.4 °F94 %29.77 in6.2 miWest (260°)9.2 mphMostly Cloudy
1:00 AM75.2 °F73.4 °F94 %29.77 in6.2 miWest (270°)6.9 mphMostly Cloudy
1:30 AM75.2 °F73.4 °F94 %29.77 in6.2 miNW (320°)8.1 mphRainLight Rain
2:00 AM76.0 °F74.0 °F92 %29.78 in5.0 miNW (320°)5.8 mphRainLight Rain
2:00 AM75.2 °F73.4 °F94 %29.77 in5.0 miNW (320°)5.8 mphRainLight Rain
2:30 AM75.2 °F73.4 °F94 %29.74 in2.5 miNNW (330°)4.6 mphRainRain
3:00 AM75.2 °F73.4 °F94 %29.74 in2.5 miNW (310°)9.2 mphRainRain
3:30 AM75.2 °F71.6 °F89 %29.77 in0.6 miWest (270°)9.2 mphRainRain
4:00 AM73.4 °F73.4 °F100 %29.74 in1.2 miNNW (340°)8.1 mphRainRain
4:30 AM75.2 °F73.4 °F94 %29.74 in2.5 miNW (310°)4.6 mphRainLight Rain
5:00 AM74.0 °F73.0 °F95 %29.77 in3.0 miWSW (240°)4.6 mphRainLight Rain
5:00 AM75.2 °F73.4 °F94 %29.77 in3.1 miWSW (240°)4.6 mphRainLight Rain
5:30 AM75.2 °F73.4 °F94 %29.77 in3.1 miWSW (250°)3.5 mphRainLight Rain
6:00 AM75.2 °F73.4 °F94 %29.77 in1.2 miWest (270°)5.8 mphRainRain
6:30 AM75.2 °F73.4 °F94 %29.77 in2.5 miWest (270°)5.8 mphRainLight Rain
7:00 AM75.2 °F73.4 °F94 %29.77 in3.1 miWNW (300°)5.8 mphRainLight Rain
7:30 AM75.2 °F73.4 °F94 %29.80 in1.9 miSW (230°)3.5 mphRainRain
8:00 AM75.0 °F74.0 °F94 %29.81 in5.0 miWSW (250°)3.5 mphRainLight Rain
8:00 AM75.2 °F73.4 °F94 %29.80 in5.0 miWSW (250°)3.5 mphRainLight Rain
8:30 AM75.2 °F73.4 °F94 %29.80 in6.2 miWNW (290°)4.6 mphRainLight Rain
9:00 AM75.2 °F73.4 °F94 %29.83 in6.2 miWest (280°)4.6 mphRainLight Rain
9:30 AM77.0 °F73.4 °F89 %29.83 in6.2 miWest (270°)6.9 mphRainLight Rain
10:00 AM77.0 °F73.4 °F89 %29.83 in6.2 miWest (270°)8.1 mphMostly Cloudy
10:30 AM78.8 °F73.4 °F83 %29.83 in6.2 miWest (270°)3.5 mphMostly Cloudy
11:00 AM82.0 °F75.0 °F73 %29.83 in16.0 miWNW (290°)4.6 mphPartly Cloudy
11:00 AM82.4 °F75.2 °F79 %29.83 in6.2 miWNW (290°)4.6 mphMostly Cloudy
11:30 AM82.4 °F75.2 °F79 %29.80 in6.2 miWest (280°)4.6 mphMostly Cloudy
12:00 PM82.4 °F75.2 °F79 %29.80 in6.2 miWest (270°)5.8 mphMostly Cloudy
12:30 PM82.4 °F75.2 °F79 %29.80 in6.2 miWest (280°)5.8 mphMostly Cloudy
1:00 PM82.4 °F75.2 °F79 %29.77 in6.2 miWest (270°)5.8 mphMostly Cloudy
1:30 PM84.2 °F75.2 °F74 %29.77 in6.2 miWest (270°)8.1 mphMostly Cloudy
2:00 PM85.0 °F74.0 °F64 %29.77 in16.0 miWest (280°)9.2 mphPartly Cloudy
2:00 PM84.2 °F75.2 °F74 %29.74 in6.2 miWest (280°)9.2 mphMostly Cloudy
2:30 PM84.2 °F75.2 °F74 %29.74 in6.2 miWNW (290°)6.9 mphMostly Cloudy
3:00 PM84.2 °F73.4 °F70 %29.71 in6.2 miWest (260°)8.1 mphMostly Cloudy
3:30 PM80.6 °F69.8 °F70 %29.71 in6.2 miWSW (250°)18.4 mph29.9 mphMostly Cloudy
4:00 PM80.6 °F68.0 °F65 %29.71 in6.2 miWSW (250°)9.2 mphMostly Cloudy
4:30 PM78.8 °F69.8 °F74 %29.71 in6.2 miWSW (250°)3.5 mphMostly Cloudy
5:00 PM78.0 °F71.0 °F72 %29.74 in9.0 miWest (270°)5.8 mphPartly Cloudy
5:00 PM78.8 °F69.8 °F74 %29.74 in6.2 miWest (270°)5.8 mphMostly Cloudy
5:30 PM78.8 °F73.4 °F83 %29.71 in6.2 miWest (280°)6.9 mphMostly Cloudy
6:00 PM78.8 °F73.4 °F83 %29.74 in6.2 miWNW (290°)6.9 mphMostly Cloudy
6:30 PM77.0 °F73.4 °F89 %29.74 in6.2 miWest (280°)8.1 mphMostly Cloudy
7:00 PM77.0 °F73.4 °F89 %29.74 in6.2 miWest (270°)8.1 mphMostly Cloudy
7:30 PM77.0 °F73.4 °F89 %29.74 in6.2 miWest (270°)6.9 mphMostly Cloudy
8:00 PM78.0 °F74.0 °F84 %29.77 in9.0 miWest (270°)9.2 mphPartly Cloudy
8:00 PM78.8 °F73.4 °F83 %29.77 in6.2 miWest (270°)9.2 mphMostly Cloudy
8:30 PM78.8 °F75.2 °F89 %29.77 in6.2 miWest (280°)6.9 mphMostly Cloudy
9:00 PM77.0 °F75.2 °F94 %29.77 in6.2 miWNW (290°)5.8 mphMostly Cloudy
9:30 PM77.0 °F75.2 °F94 %29.80 in6.2 miWest (280°)5.8 mphMostly Cloudy
10:00 PM77.0 °F75.2 °F94 %29.80 in6.2 miWest (270°)5.8 mphMostly Cloudy
10:30 PM77.0 °F75.2 °F94 %29.80 in6.2 miWNW (290°)4.6 mphMostly Cloudy
11:00 PM77.0 °F74.0 °F90 %29.82 in9.0 miWNW (290°)4.6 mphPartly Cloudy
11:00 PM77.0 °F75.2 °F94 %29.80 in6.2 miWNW (290°)4.6 mphMostly Cloudy
11:30 PM77.0 °F75.2 °F94 %29.80 in6.2 miWNW (290°)4.6 mphMostly Cloudy
Hourly data recorded from WBGG, located miles away from Kuching, Malaysia







STORIES FROM OUR PARTNERS